Location: Praha
(50.0830°N, 14.4670°E)
Time: 05:48:25
(UTC+01:00)

ISS - Pass Details

Date: 03 December 2025
Orbit: 416 x 421 km, 51.6° (Epoch: 07 December)

Event Time Altitude Azimuth Distance (km) Brightness Sun altitude
Rises 16:47:40 0° 285° (WNW) 2,369 0.9 -7.2°
Reaches altitude 10° 16:50:05 10° 269° (W) 1,500 0.3 -7.5°
Maximum altitude 16:52:42 21° 218° (SW) 997 -0.9 -7.9°
Drops below altitude 10° 16:55:18 10° 167° (SSE) 1,491 -0.8 -8.3°
Sets 16:57:42 0° 150° (SSE) 2,349 0.0 -8.6°
